SCP
1 1 1 1 1 1 1 1 1 0 0 0 0 0 0 0 0 0 0 0 0 0 0 0 0 0 0 0 0 0 0 0 0 0 0 0 0 0 0 0 0 0 0
1 1 1 1 1 1 1 1 1 0 0 0 0 0 0 0 0 0 0 0 0 0 0 0 0 0 0 0 0 0 0 0 0 0 0 0 0 0 0 0 0 0 0
2 2 2 2 1 1 1 1 1 0 0 0 0 0 0 0 0 0 0 0 0 0 0 0 0 0 0 0 0 0 0 0 0 0 0 0 0 0 0 0 0 0 0
2 2 2 2 2 1 1 1 1 0 0 0 0 0 0 0 0 0 0 0 0 0 0 0 0 0 0 0 0 0 0 0 0 0 0 0 0 0 0 0 0 0 0
3 3 3 3 2 2 1 1 1 1 0 0 0 0 0 0 0 0 0 0 0 0 0 0 0 0 0 0 0 0 0 0 0 0 0 0 0 0 0 0 0 0 0
3 3 4 3 3 2 2 2 1 1 0 0 0 0 0 0 0 0 0 0 0 0 0 0 0 0 0 0 0 0 0 0 0 0 0 0 0 0 0 0 0 0 0
3 4 4 3 3 2 2 2 1 1 0 0 0 0 0 0 0 0 0 0 0 0 0 0 0 0 0 0 0 0 0 0 0 0 0 0 0 0 0 0 0 0 0
3 3 3 3 3 3 3 2 1 1 0 0 0 0 0 0 0 0 0 0 0 0 0 0 0 0 0 0 1 1 1 0 0 0 0 0 0 0 0 0 0 0 0
3 3 3 2 3 3 3 2 1 1 0 0 0 0 0 0 0 0 0 0 0 0 0 0 0 0 0 1 1 1 1 0 0 0 0 0 0 1 1 0 0 0 0
3 3 2 2 2 2 2 1 1 1 0 0 0 0 0 0 0 0 0 0 0 0 0 0 0 0 0 1 1 1 1 0 0 0 0 0 0 1 1 0 0 0 0
2 2 2 2 2 2 1 1 1 1 0 0 0 0 0 0 0 0 0 0 0 0 0 0 0 0 0 1 1 1 0 0 0 0 0 0 0 1 0 0 0 0 0
2 2 2 2 2 1 1 1 1 1 0 0 0 0 0 0 0 0 0 0 0 0 0 0 0 0 0 0 0 0 0 0 0 0 0 0 0 1 1 1 0 0 0
1 1 2 2 1 1 1 1 1 1 0 0 0 0 0 0 0 0 0 0 0 0 0 0 0 0 0 0 0 0 0 0 0 0 0 0 1 1 1 1 1 0 0
1 1 1 1 1 1 1 1 1 0 0 0 0 0 0 0 0 0 0 0 0 0 0 0 0 0 0 0 0 0 0 0 0 0 0 0 0 1 1 1 1 1 0
2 2 1 1 1 1 1 1 1 0 0 0 0 0 0 0 0 0 0 0 0 0 0 0 0 0 0 0 0 0 0 0 0 0 0 0 0 0 1 0 0 0 0
2 2 2 2 1 1 1 1 0 0 0 0 0 0 0 0 0 0 0 0 0 0 0 0 0 0 0 0 0 0 0 0 0 0 0 0 0 0 1 0 0 0 0
4 3 3 2 2 1 1 1 0 0 0 0 0 0 0 0 0 0 0 0 0 0 0 0 0 0 0 0 0 0 0 0 0 0 0 0 0 0 1 0 1 1 0
4 4 3 3 2 2 1 1 1 0 0 0 0 0 0 0 0 0 0 0 0 0 0 0 0 0 0 0 0 0 0 0 0 0 0 0 0 0 0 0 1 1 1
5 5 4 3 2 2 2 1 1 1 0 0 0 0 0 0 0 0 0 0 0 0 0 0 0 0 0 0 0 0 0 0 0 0 0 0 0 0 0 0 0 0 0
7 6 5 4 3 3 3 2 1 1 1 0 0 0 0 0 0 0 0 0 0 0 0 0 0 0 0 0 0 0 0 0 0 0 0 0 0 0 0 0 0 0 0
9 8 7 6 5 4 4 3 2 1 1 1 0 0 0 0 0 0 0 0 0 0 0 0 0 0 0 0 0 0 0 0 0 0 0 0 0 0 0 0 0 0 0
9 8 7 6 5 4 4 3 2 2 1 1 1 0 0 0 0 0 0 0 0 0 0 0 0 0 0 0 0 0 0 0 0 0 0 0 0 0 0 0 0 0 0
7 6 6 5 4 4 3 3 2 2 1 1 1 0 0 0 0 0 0 0 0 0 0 0 0 0 0 0 0 0 0 0 0 0 0 0 0 0 0 0 0 0 0
4 4 4 4 3 3 3 3 2 2 1 1 0 0 0 0 0 0 0 0 0 0 0 0 0 0 0 0 0 0 0 0 0 0 0 0 0 0 0 0 0 0 0
3 3 3 2 2 2 2 2 1 1 1 1 0 0 0 0 0 0 0 0 0 0 0 0 0 0 0 0 0 0 0 0 0 0 0 0 0 0 0 0 0 0 0
2 3 2 2 2 1 1 1 1 1 1 0 0 0 0 0 0 0 0 0 0 0 0 0 0 0 0 0 0 0 0 0 0 0 0 0 0 0 0 0 0 0 0
Wind_Speed
9 11 17 18 19 18 18 17 17 17 16 16 16 16 15 15 15 15 14 14 13 13 12 12 11 11 11 11 12 12 12 13 14 15 15 15 15 16 17 17 15 12 17
13 13 18 18 19 18 18 18 17 17 16 15 15 15 15 15 14 14 14 13 13 13 12 11 11 11 11 11 11 11 12 12 13 14 15 14 14 15 16 16 15 10 16
16 13 16 18 18 18 18 17 17 16 16 15 14 14 14 14 14 13 13 13 12 12 12 11 11 10 10 10 10 10 11 11 12 14 13 6 8 14 15 15 16 15 15
16 12 14 19 18 18 18 17 17 16 16 15 14 14 14 13 13 13 13 12 12 12 11 11 10 10 10 10 10 9 9 10 11 12 6 4 7 14 15 15 15 15 14
13 11 15 20 19 19 18 17 16 16 15 15 14 14 14 13 13 12 12 12 11 11 11 10 9 9 9 9 8 7 6 7 9 8 5 5 5 13 15 14 14 14 14
12 11 15 20 20 19 18 17 16 16 15 14 14 13 13 12 12 12 12 11 11 11 10 9 8 8 7 7 7 7 7 6 7 6 6 5 5 11 14 13 13 13 13
11 9 13 19 19 19 18 17 16 15 15 14 13 12 12 12 11 11 11 10 10 10 9 8 7 6 6 6 6 8 8 6 6 6 5 5 6 11 13 13 13 13 13
13 10 11 18 19 18 18 17 16 15 14 13 13 12 12 11 11 10 10 10 9 9 8 7 6 5 4 4 5 7 8 8 8 7 5 4 9 11 12 12 12 12 12
11 10 8 10 13 17 17 16 16 15 14 13 12 12 11 11 10 10 9 9 8 8 7 7 5 4 2 2 4 6 8 9 6 4 6 4 9 12 13 12 12 12 12
10 9 8 7 7 7 9 15 15 14 13 13 12 12 11 10 9 9 7 7 7 7 6 6 5 3 2 0 1 4 7 8 5 4 3 5 10 12 13 12 12 11 11
10 8 7 7 6 6 6 11 12 13 12 11 9 11 8 4 3 4 6 7 6 6 5 5 4 3 2 1 1 2 5 3 4 3 3 7 10 12 12 12 12 12 11
12 10 8 8 7 6 6 6 4 5 5 4 3 4 3 2 2 4 4 6 6 5 4 4 3 2 1 0 1 2 2 4 3 3 4 9 10 11 12 12 12 12 11
11 11 9 9 7 6 4 5 2 2 3 3 3 3 3 2 2 2 1 1 1 2 1 1 1 1 1 1 1 2 3 3 2 2 4 10 10 11 12 13 12 12 12
11 10 9 9 8 6 5 4 3 3 2 2 3 4 3 2 2 2 1 1 1 1 1 1 1 1 1 2 2 3 3 3 3 2 4 10 10 11 13 13 13 13 12
10 9 8 9 9 7 5 4 5 3 3 3 3 4 5 3 3 2 1 1 1 2 2 1 1 1 1 1 2 4 4 4 4 4 3 10 11 11 12 14 14 13 13
10 10 9 9 9 8 5 5 4 4 4 4 4 5 5 4 3 3 2 2 1 1 1 2 2 1 1 1 1 2 4 4 4 4 3 6 11 11 11 13 13 13 13
12 10 9 9 9 9 7 6 5 4 4 4 4 4 5 4 4 3 3 2 1 2 2 2 2 2 2 1 1 1 2 3 4 5 5 3 4 9 11 11 11 12 13
11 10 9 10 9 8 7 5 5 5 5 4 4 4 5 5 5 4 3 2 2 2 3 3 2 2 2 2 1 0 1 2 3 3 3 3 3 3 7 11 11 10 11
11 10 8 7 8 8 7 6 6 5 5 4 4 4 4 5 5 4 3 2 3 3 3 2 2 2 1 1 0 0 0 1 1 2 2 3 4 4 3 6 10 10 11
11 10 10 8 8 8 6 6 5 5 4 4 4 4 5 4 5 4 3 3 3 3 3 2 3 2 1 0 1 2 1 0 0 1 1 2 2 4 4 4 3 5 9
10 10 10 9 8 7 6 6 6 5 4 3 3 5 5 5 5 4 3 3 3 3 2 2 2 3 2 1 3 3 3 2 1 0 1 1 1 2 3 3 3 2 3
10 10 10 10 8 7 6 5 4 5 4 4 3 4 5 5 5 5 4 3 3 3 3 3 3 2 2 2 2 3 3 4 4 2 1 1 1 1 2 3 3 3 2
10 11 11 10 9 8 7 5 5 4 3 2 3 3 4 5 5 5 5 4 3 3 2 2 3 3 2 2 1 3 3 2 2 3 2 1 0 1 1 1 3 3 3
11 10 10 10 9 8 8 8 9 6 5 5 4 4 4 5 5 5 5 5 4 3 3 2 3 3 3 2 2 1 1 3 3 0 3 3 2 0 1 1 2 2 3
11 10 10 9 9 8 8 9 8 5 4 3 4 5 4 3 4 5 5 5 5 3 3 3 3 3 3 2 1 1 2 2 2 3 0 3 3 2 1 1 1 2 3
8 9 10 10 9 8 8 8 8 8 6 6 5 5 4 3 3 4 5 5 5 4 4 3 3 4 3 3 2 2 2 2 1 2 2 1 2 3 2 1 1 2 2
Wind_Direction
148 149 143 136 131 127 123 120 116 113 111 109 107 105 104 103 104 104 105 106 106 105 103 101 99 97 96 97 98 101 104 109 111 112 113 113 114 114 113 111 108 108 111
146 147 142 137 133 130 127 124 122 120 117 115 113 111 110 108 108 108 108 107 106 106 105 102 100 98 95 95 97 101 105 110 113 114 111 112 114 114 115 114 113 116 115
140 143 140 137 134 132 130 127 126 125 123 121 118 116 115 114 113 112 111 110 109 109 108 106 103 99 95 93 94 99 104 109 111 110 105 98 109 117 119 118 117 116 115
139 140 139 137 135 133 132 131 131 130 128 126 123 122 119 118 117 116 115 114 113 111 111 109 106 100 97 93 91 94 101 109 114 114 105 101 109 118 120 119 120 119 118
136 137 141 138 137 136 135 135 135 133 132 131 128 127 124 122 121 120 119 117 116 115 113 112 107 101 96 91 86 83 87 103 119 117 109 102 106 123 123 124 123 122 121
134 136 142 139 138 138 138 139 138 137 136 135 132 130 128 125 125 125 123 121 118 118 117 116 111 104 96 86 76 67 67 85 113 114 117 117 119 129 129 128 126 125 125
135 135 140 141 141 141 141 142 142 141 140 139 136 134 132 130 129 128 126 125 123 123 122 120 115 108 98 83 71 62 61 78 114 121 126 124 130 133 133 131 129 129 128
137 134 139 143 144 144 144 145 145 145 145 144 142 139 138 137 134 132 132 132 131 130 129 127 123 116 98 76 65 61 67 79 117 129 128 131 140 137 135 134 134 134 132
140 140 141 146 147 148 148 149 149 149 150 149 146 145 145 143 142 141 140 141 141 141 140 137 135 132 111 69 58 65 79 90 105 121 137 141 146 144 143 142 141 140 138
144 143 141 141 143 146 150 152 153 153 154 153 152 152 153 153 153 152 150 151 150 151 152 149 151 157 152 93 37 71 87 95 109 124 128 156 156 153 151 150 148 146 145
147 146 145 144 144 145 151 158 156 157 158 157 158 160 156 150 154 161 166 166 163 161 162 163 166 171 175 278 333 76 94 116 127 141 145 163 164 161 158 157 155 154 153
158 161 159 154 154 155 162 147 150 155 157 157 163 157 146 158 177 174 182 178 172 165 167 173 177 179 164 4 355 71 111 134 135 151 168 169 173 171 167 164 162 162 161
165 165 163 162 162 162 149 154 153 150 155 161 163 151 144 146 153 148 134 169 169 161 140 155 138 107 112 143 139 114 135 142 144 163 176 180 182 181 177 173 172 170 169
162 166 165 163 163 162 150 155 157 156 156 152 151 147 135 129 124 122 123 141 130 119 130 130 128 142 137 148 146 136 143 147 153 171 193 191 191 190 186 182 180 179 177
159 162 162 161 160 158 150 157 159 161 154 150 135 133 132 125 123 117 115 114 118 121 129 129 132 137 127 129 137 142 149 158 165 176 198 199 196 193 194 190 187 186 185
158 164 161 159 158 153 152 150 152 151 147 135 124 122 119 117 118 118 110 95 90 97 109 119 113 100 113 126 131 137 147 159 171 178 195 209 206 201 202 197 194 192 190
159 162 161 158 158 150 147 150 148 146 139 128 124 120 114 111 111 113 109 94 78 81 88 79 65 62 69 72 82 127 143 161 170 183 190 203 211 213 210 203 201 200 197
152 154 161 161 155 146 145 145 141 140 134 129 127 122 115 109 110 104 100 83 76 84 84 82 63 58 51 53 40 338 147 163 182 185 184 196 203 213 216 210 205 204 204
155 154 155 155 154 149 145 139 135 136 137 137 130 125 119 112 114 109 100 91 88 82 75 83 69 80 68 39 27 59 19 166 186 184 182 197 204 205 208 219 212 208 211
159 160 157 156 154 144 133 125 122 124 135 137 136 136 129 122 117 110 106 96 96 90 73 67 61 52 74 47 35 42 357 324 146 141 166 168 187 198 198 208 209 218 220
161 163 160 159 157 144 139 142 142 147 153 148 152 150 142 135 124 114 111 97 100 100 100 86 69 49 26 37 61 24 359 359 9 5 109 111 144 182 177 188 193 203 228
168 166 161 163 161 156 155 153 148 147 157 158 153 153 151 141 136 127 122 120 116 103 79 67 69 67 19 44 104 88 30 358 349 355 353 124 123 123 169 189 192 194 205
174 173 171 169 166 164 157 136 123 107 102 110 146 165 166 150 142 133 136 129 121 118 114 97 87 92 61 13 78 133 136 197 303 330 331 356 114 121 157 169 180 184 188
183 175 169 170 166 165 157 151 152 155 164 183 176 173 173 162 152 146 144 136 127 129 134 125 100 102 103 49 5 34 131 154 144 334 331 337 334 267 203 177 169 172 169
179 175 172 170 169 168 166 162 160 162 168 166 158 161 171 171 165 160 153 142 136 138 140 125 112 104 108 112 75 41 49 54 84 127 279 323 334 312 272 214 172 165 166
179 177 173 170 176 175 171 167 168 172 169 161 165 170 178 178 177 177 163 155 151 149 153 149 134 125 122 115 106 96 107 105 109 125 147 267 293 298 307 295 207 192 184